Meteo Giornale » Osservazioni meteo Italia » Napoli-Capodichino

ore: 11:20 - Osservazioni Meteo Napoli-Capodichino
Lat. 40° 51' N Lon. 14° 18' E Alt. 88 metri s.l.m.

foschia Europe/Rome

13 °C

Foschia

Temp. 24 Ore

3 °C

14 °C

Nord

3.7 Km/h

Dew point 6 °C

Umidità 62 %

Visibilità  5 Km

Il sole sorge alle ore 06:46

Il sole tramonta alle ore 17:45

Data e Ora Cielo e Fenomeni T °C DP °C Um. % Pres. hPa Vis. km Vento km/h
Oggi h: 11:20 foschia Foschia 13 6 62 1028 5 N 3.7
Oggi h: 10:50 foschia Foschia 13 7 66 1028 5 N 1.8
Oggi h: 10:20 foschia Foschia 12 6 66 1028 4 N 5.5
Oggi h: 09:50 foschia Foschia 10 5 71 1027 4 N 3.7
Oggi h: 09:20 foschia Foschia 9 5 75 1027 4 N/NE 7.4
Oggi h: 08:50 foschia Foschia 9 5 75 1027 3 N/NE 7.4
Oggi h: 08:20 foschia Foschia 7 5 87 1027 3 N 5.5
Oggi h: 07:50 foschia Foschia 5 3 86 1027 3 N 5.5
Oggi h: 07:20 foschia Foschia 4 2 86 1026 3 N 5.5
Oggi h: 06:50 foschia Foschia 3 2 93 1026 5 N 5.5
Oggi h: 06:20 sereno Sereno 3 2 93 1026 7 N 5.5
Oggi h: 05:50 sereno Sereno 3 1 86 1026 8 N 5.5
Oggi h: 05:20 sereno Sereno 3 1 86 1026 8 N 5.5
Oggi h: 04:50 sereno Sereno 3 2 93 1026 8 N 5.5
Oggi h: 04:20 sereno Sereno 4 2 86 1026 8 N 3.7
Oggi h: 03:50 sereno Sereno 4 3 93 1026 8 N 5.5
Oggi h: 03:20 sereno Sereno 3 2 93 1026 8 N 5.5
Oggi h: 02:50 sereno Sereno 4 2 86 1026 8 N 3.7
Oggi h: 02:20 sereno Sereno 4 2 86 1026 8 N 3.7
Oggi h: 01:50 sereno Sereno 4 1 80 1026 8 N 3.7
Oggi h: 01:20 sereno Sereno 5 3 86 1026 8 N 1.8
Oggi h: 00:50 sereno Sereno 5 2 80 1026 8 N 1.8
Oggi h: 00:20 sereno Sereno 5 3 86 1026 7 N 1.8
Ieri h: 23:50 sereno Sereno 7 4 81 1025 8 N 1.8
Ieri h: 23:20 sereno Sereno 6 4 86 1025 8 N 1.8
Ieri h: 22:50 foschia Foschia 8 5 81 1025 5 N 3.7
Ieri h: 22:20 foschia Foschia 7 4 81 1025 5 N 3.7
Ieri h: 21:50 sereno Sereno 8 4 75 1025 6 N 3.7
Ieri h: 21:20 sereno Sereno 8 5 81 1025 6 N 1.8
Ieri h: 20:50 sereno Sereno 9 5 75 1025 7 N 3.7
Ieri h: 20:20 sereno Sereno 9 5 75 1025 8 N 1.8
Ieri h: 19:50 sereno Sereno 9 5 75 1025 8 N 1.8
Ieri h: 19:20 sereno Sereno 10 5 71 1024 8 N 3.7
Ieri h: 18:50 sereno Sereno 10 5 71 1024 8 NO 7.4
Ieri h: 18:20 poco_nuvoloso Poco Nuvoloso 10 5 71 1024 8 O/NO 11.1
Ieri h: 17:50 poco_nuvoloso Poco Nuvoloso 11 5 66 1024 8 O 9.3
Ieri h: 17:20 poco_nuvoloso Poco Nuvoloso 11 5 66 1023 10 O 13
Ieri h: 16:50 poco_nuvoloso Poco Nuvoloso 12 5 62 1023 10 O/NO 9.3
Ieri h: 16:20 poco_nuvoloso Poco Nuvoloso 13 5 58 1023 10 SO 9.3
Ieri h: 15:50 poco_nuvoloso Poco Nuvoloso 13 5 58 1023 10 S 9.3
Ieri h: 15:20 poco_nuvoloso Poco Nuvoloso 14 6 58 1023 10 S/SO 11.1
Ieri h: 14:50 poco_nuvoloso Poco Nuvoloso 13 5 58 1023 10 S/SO 11.1
Ieri h: 14:20 poco_nuvoloso Poco Nuvoloso 14 5 54 1023 10 S 11.1
Ieri h: 13:50 poco_nuvoloso Poco Nuvoloso 13 5 58 1024 10 S 9.3
Ieri h: 13:20 poco_nuvoloso Poco Nuvoloso 13 4 54 1024 10 S/SO 11.1
Ieri h: 12:50 poco_nuvoloso Poco Nuvoloso 13 4 54 1024 10 N 3.7
Ieri h: 12:20 nuvoloso Nuvoloso 13 4 54 1024 10 N 7.4
Ieri h: 11:50 poco_nuvoloso Poco Nuvoloso 12 4 57 1025 10 N 5.5
Ieri h: 11:20 poco_nuvoloso Poco Nuvoloso 12 4 57 1025 10 N 5.5
Ieri h: 10:50 molto_nuvoloso Molto Nuvoloso 12 4 57 1025 10 N 5.5